Regional Weather Roundup
Issued by NWS Huntsville, AL

Home | Current Version | Previous Version | Text Only | Print | Product List | Glossary On
Versions: 1 2 3 4 5 6 7 8 9 10 11 12 13 14 15 16 17 18 19 20 21 22 23 24 25 26 27 28 29 30 31 32 33 34 35 36 37 38 39 40 41 42 43 44 45 46 47 48 49 50
575
ASUS44 KHUN 201310
RWRHUN

WEATHER ROUNDUP FOR THE TENNESSEE VALLEY
NATIONAL WEATHER SERVICE HUNTSVILLE AL
700 AM CST MON FEB 20 2017

ALZ001>004-201400-
NORTHWEST ALABAMA

CITY           SKY/WX    TMP DP  RH WIND       PRES   REMARKS
COURTLAND HCN    N/A     45 N/A N/A CALM        N/A
RUSSELLVILLE     N/A     45 N/A N/A MISG        N/A
SHOALS AIRPORT PTCLDY    51  48  89 E5        30.15R FOG
SHOALS TVA RES   N/A     48 N/A N/A MISG        N/A
$$

ALZ005>007-016-201400-
NORTH CENTRAL ALABAMA

CITY           SKY/WX    TMP DP  RH WIND       PRES   REMARKS
CULLMAN AG STN   N/A     46 N/A N/A CALM        N/A
DECATUR AP     PTCLDY    46  46 100 CALM      30.16R
HUNTSVILLE AP  CLOUDY    51  49  92 E7        30.16R
MERIDIANVILLE  MOCLDY    43  41  93 CALM      30.17R
REDSTONE ARSN  CLOUDY    48  47  97 CALM      30.15R
VINEMONT AP    FAIR      52  46  80 CALM      30.18R
$$

ALZ008>010-201400-
NORTHEAST ALABAMA

CITY           SKY/WX    TMP DP  RH WIND       PRES   REMARKS
ALBERTVILLE    PTCLDY    48  48 100 CALM      30.17R
FORT PAYNE     CLOUDY    43  39  87 CALM      30.18R FOG
SCOTTSBORO AP  CLOUDY    46  46 100 N3        30.20R
SCOTTSBORO HCN   N/A     41 N/A N/A MISG        N/A
VALLEY HEAD      N/A     39 N/A N/A MISG        N/A
$$

TNZ076-096-097-201400-
SOUTHEASTERN MIDDLE TENNESSEE

CITY           SKY/WX    TMP DP  RH WIND       PRES   REMARKS
TULLAHOMA      CLEAR     43  41  93 CALM      30.18R
WINCHESTER     CLEAR     45  45 100 CALM      30.17S
$$

...SURROUNDING SITES...

CITY           SKY/WX    TMP DP  RH WIND       PRES   REMARKS
ATLANTA        PTCLDY    52  46  80 E5        30.18R
ANNISTON       CLOUDY    46  45  96 E3        30.18R
BIRMINGHAM     CLOUDY    50  47  89 CALM      30.19R
CHATTANOOGA    MOCLDY    44  41  89 CALM      30.22R
CORINTH        FAIR      46  45  93 CALM      30.10S FOG
DALTON         CLOUDY    37  37 100 CALM      30.21R
GADSDEN        CLOUDY    44  43  96 CALM      30.19R
GOLDEN TRNGL   CLEAR     54  46  76 SE10      30.06S
HALEYVILLE     FAIR      44  43  96 E3        30.16R
JACKSON TN     CLOUDY    54  49  83 SE3       30.09S
MEMPHIS        PTCLDY    61  50  67 SE10      30.06R
NASHVILLE      MOCLDY    46  43  89 CALM      30.18R FOG
OXFORD MS      FAIR      54  48  82 SE7       30.10R
ROME           CLOUDY    43  40  89 CALM      30.19R
SAVANNAH       CLEAR     46  45  93 CALM      30.11R
TUPELO         PTCLDY    47  44  90 CALM      30.10S
TUSCALOOSA     MOCLDY    48  47  96 NE5       30.14R
$$

...GULF COAST WEATHER...

CITY           SKY/WX    TMP DP  RH WIND       PRES   REMARKS
GULFPORT       CLOUDY    64  64 100 E7        30.06R FOG
PASCAGOULA     FOG       61  59  93 CALM      30.08R VSB 1/4
MOBILE         FOG       62  61  96 SE6       30.09R VSB<1/4
GULF SHORES    PTSUNNY   60  60 100 S3        30.07F
PENSACOLA      PTCLDY    60  58  92 E6        30.08F
DESTIN         PTCLDY    63  58  83 NE5       30.12S
PANAMA CITY    PTCLDY    58  57  95 CALM      30.13S
APPALACHICOLA  CLEAR     57  57 100 CALM      30.14R
$$





USA.gov is the U.S. government's official web portal to all federal, state and local government web resources and services.